Location: Northcutt
(34.7304°N, 84.4305°W)
Time: 18:04:20
(UTC+00:00)

Transit 2A Rocket - Pass Details

Date: 04 October 2022
Orbit: 589 x 911 km, 66.7° (Epoch: 02 December)

Event Time Altitude Azimuth Distance (km) Brightness Sun altitude
Rises 18:23:59 0° 357° (N) 3,024 7.7 48.4°
Reaches altitude 10° 18:28:26 10° 36° (NE) 2,197 7.1 48.1°
Maximum altitude 18:29:32 11° 49° (NE) 2,175 7.1 48.0°
Drops below altitude 10° 18:30:40 10° 62° (ENE) 2,243 7.2 47.9°
Sets 18:35:25 0° 99° (E) 3,267 8.1 47.5°
